Location: Codford Saint Peter
(51.1597°N, 2.0531°W)
Time: 06:56:19
(UTC+00:00)

Lacrosse 4 Rocket - Pass Details

Date: 18 September 2020
Orbit: 543 x 615 km, 68.0° (Epoch: 19 October)

Event Time Altitude Azimuth Distance (km) Brightness Sun altitude
Rises 20:56:55 0° 329° (NNW) 2,718 6.0 -24.4°
Reaches altitude 10° 20:59:21 10° 341° (NNW) 1,823 4.7 -24.7°
Enters shadow 21:02:12 27° 23° (NNE) 1,083 2.9 -25.1°
